STARLINK-32553, 62071

Orbit data source: Space-Track

STARLINK-32553, 62071 is a payload satellite owned by SpaceX/Seattle (US) in LEO that was launched on Sun, 24 Nov 2024 UTC via an FALCON 9 launch vehicle from the Air Force Western Test Range (AFWTR). Payload-class satellites include a variety of spacecraft equipped with specific instruments for various scientific and technological missions. These include communications satellites like Starlink; space stations such as the ISS; scientific satellites like the Hubble; Earth observation satellites from companies like Planet Labs, Umbra, and HawkEye 360; GPS; miniature CubeSats for education and research; and military/defense satellites.

Loading next visibility...
Identifier
62071, 2024-217Q
Orbit
LEO
Country
Flag of USUS
Related business
Manufacturer
SpaceX/Seattle
Mission
Operational Commercial Communications
Bus & Motor
STARLINK V2M, Unknown motor
Mass
730 kg wet, ~700 kg dry
Launch date (UTC)
2024-11-24 (1 year ago)
Launch vehicle
FALCON 9
Launch site
Air Force Western Test Range (AFWTR)
Object type
Payload
Rocket body
Debris
Shape & HBR
Box + 2 Pan, 17.7 m
Radar Cross Section
33.884 m², Large (>1 m²)

Expand to show TLE details & history
Last TLE update: 12 hours ago

TLE from 12 hours ago
0 STARLINK-32553
1 62071U 24217Q   26095.18051894  .00027135  00000-0  92439-3 0  9998
2 62071  53.1618  71.1033 0001420 134.3922 225.7195 15.30220035 77521
Epoch: 2026-04-05T04:19Z
TLE epoch observation values (Epoch: 2026-04-05T04:19:56.836Z)
Latitude
-0.00004°
Longitude
172.62681°
Altitude
476.735 km
Speed
7.628 km/s
True Right ascension
04h 44m 24s
True Declination
0° 00' 00"
Sunlit
Object was in daylight at epoch
Visualization orbit readout
Latitude
Unknown
Longitude
Unknown
Altitude
Unknown
Speed
Unknown
Apparent Right ascension
Unknown
Apparent Declination
Unknown
Sunlit
N/A
Visualization observer readout
Local Sidereal Time
21:55:53
Azimuth
Unknown
Elevation
Unknown
Doppler factor
Unknown
Orbital elements
Apogee altitude
476.385 km
Perigee altitude
474.438 km
Semi-major axis
6,853.548 km
Eccentricity
0.00014
Inclination
53.1618°
RAAN
71.1033°
Arg. of periapsis
134.3922°
True anomaly
225.70785°
Mean anomaly
225.7195°
Eccentric anomaly
225.71368°
Mean motion
3.82534 °/min
Orbital period
94.11 mins
BSTAR
0.00092439
Loading maneuver chart data...
Computing Atmospheric mass density...
Loading historical data...
Loading historical data...
Loading historical data...
Loading historical data...
Loading historical data...
Loading historical data...
Loading historical data...

Documentation

Showing up to 5 results
|